• In Slovakia
  • List of Countries
  • For 7 days
  • Water Temperature
  • Satellite Maps
  • Weather Map
  • Weather Widgets
  • user-avatar
    Login

    Hourly Weather Puyo

    Today, 24 February, Saturday

    Time Temperature Precipitation Wind Pressure Humidity
    00:00 +21°C° 0.4 mm 1 mps 670 mmHg 88%
    01:00 +20°C° 0.4 mm 1 mps 670 mmHg 88%
    02:00 +20°C° 0.3 mm 1 mps 670 mmHg 87%
    03:00 +20°C° 0.3 mm 1 mps 670 mmHg 87%
    04:00 +20°C° 0.3 mm 1 mps 670 mmHg 86%
    05:00 +20°C° 0.1 mm 1 mps 670 mmHg 84%
    06:00 +20°C° 0.1 mm 1 mps 670 mmHg 83%
    07:00 +20°C° 0.1 mm 1 mps 670 mmHg 81%
    08:00 +23°C° 0.1 mm 1 mps 671 mmHg 73%
    09:00 +26°C° 0.1 mm 1 mps 672 mmHg 64%
    10:00 +29°C° 0.1 mm 1 mps 673 mmHg 55%
    11:00 +29°C° 0.3 mm 1 mps 672 mmHg 55%
    12:00 +29°C° 0.3 mm 2 mps 672 mmHg 55%
    13:00 +30°C° 0.3 mm 2 mps 671 mmHg 55%
    14:00 +29°C° 0.2 mm 2 mps 670 mmHg 58%
    15:00 +28°C° 0.2 mm 1 mps 670 mmHg 62%
    16:00 +28°C° 0.2 mm 1 mps 669 mmHg 65%
    17:00 +26°C° 0.3 mm 1 mps 669 mmHg 71%
    18:00 +24°C° 0.3 mm 1 mps 669 mmHg 77%
    19:00 +23°C° 0.3 mm 1 mps 669 mmHg 84%
    20:00 +22°C° 0.1 mm 1 mps 669 mmHg 84%
    21:00 +21°C° 0.1 mm 1 mps 670 mmHg 85%
    22:00 +20°C° 0.1 mm 1 mps 670 mmHg 85%
    23:00 +20°C° 0.1 mm 1 mps 670 mmHg 83%

    Tomorrow, 25 February, Sunday

    Time Temperature Precipitation Wind Pressure Humidity
    00:00 +20°C° 0.1 mm 1 mps 670 mmHg 81%
    01:00 +19°C° 0.1 mm 1 mps 670 mmHg 78%
    02:00 +19°C° 0 mm 1 mps 670 mmHg 75%
    03:00 +19°C° 0 mm 1 mps 670 mmHg 72%
    04:00 +19°C° 0 mm 1 mps 670 mmHg 68%
    05:00 +19°C° 0.2 mm 1 mps 670 mmHg 67%
    06:00 +19°C° 0.2 mm 1 mps 670 mmHg 65%
    07:00 +19°C° 0.2 mm 1 mps 670 mmHg 64%
    08:00 +23°C° 0 mm 1 mps 671 mmHg 56%
    09:00 +26°C° 0 mm 1 mps 672 mmHg 49%
    10:00 +30°C° 0 mm 1 mps 673 mmHg 42%
    11:00 +30°C° 0.2 mm 2 mps 673 mmHg 44%
    12:00 +31°C° 0.2 mm 2 mps 672 mmHg 47%
    13:00 +31°C° 0.2 mm 2 mps 671 mmHg 49%
    14:00 +30°C° 0.9 mm 1 mps 670 mmHg 55%
    15:00 +29°C° 0.9 mm 1 mps 670 mmHg 61%
    16:00 +28°C° 0.9 mm 1 mps 669 mmHg 67%
    17:00 +26°C° 1.4 mm 1 mps 669 mmHg 73%
    18:00 +24°C° 1.4 mm 1 mps 669 mmHg 79%
    19:00 +22°C° 1.4 mm 1 mps 669 mmHg 85%
    20:00 +22°C° 1.3 mm 1 mps 670 mmHg 86%
    21:00 +22°C° 1.3 mm 1 mps 670 mmHg 86%
    22:00 +21°C° 1.3 mm 1 mps 671 mmHg 87%
    23:00 +21°C° 0.8 mm 1 mps 671 mmHg 86%

    Day after tomorrow, 26 February, Monday

    Time Temperature Precipitation Wind Pressure Humidity
    00:00 +21°C° 0.8 mm 1 mps 671 mmHg 85%
    01:00 +20°C° 0.8 mm 1 mps 671 mmHg 84%
    02:00 +20°C° 0.4 mm 1 mps 670 mmHg 83%
    03:00 +20°C° 0.4 mm 1 mps 670 mmHg 83%
    04:00 +20°C° 0.4 mm 1 mps 670 mmHg 82%
    05:00 +20°C° 0.4 mm 1 mps 670 mmHg 79%
    06:00 +20°C° 0.4 mm 1 mps 671 mmHg 77%
    07:00 +20°C° 0.4 mm 1 mps 671 mmHg 75%
    08:00 +22°C° 0.2 mm 1 mps 672 mmHg 71%
    09:00 +24°C° 0.2 mm 1 mps 673 mmHg 67%
    10:00 +26°C° 0.2 mm 1 mps 674 mmHg 63%
    11:00 +27°C° 0.5 mm 1 mps 673 mmHg 63%
    12:00 +28°C° 0.5 mm 1 mps 672 mmHg 62%
    13:00 +29°C° 0.5 mm 1 mps 672 mmHg 62%
    14:00 +28°C° 0.3 mm 1 mps 671 mmHg 65%
    15:00 +27°C° 0.3 mm 1 mps 670 mmHg 69%
    16:00 +26°C° 0.3 mm 1 mps 669 mmHg 72%
    17:00 +25°C° 0.3 mm 1 mps 669 mmHg 78%
    18:00 +22°C° 0.3 mm 0 mps 669 mmHg 85%
    19:00 +20°C° 0.3 mm 0 mps 670 mmHg 91%
    20:00 +20°C° 0.2 mm 0 mps 670 mmHg 91%
    21:00 +20°C° 0.2 mm 0 mps 671 mmHg 90%
    22:00 +21°C° 0.2 mm 1 mps 671 mmHg 90%
    23:00 +21°C° 0.1 mm 1 mps 671 mmHg 89%

    27 February, Tuesday

    Time Temperature Precipitation Wind Pressure Humidity
    00:00 +21°C° 0.1 mm 1 mps 670 mmHg 88%
    01:00 +21°C° 0.1 mm 1 mps 670 mmHg 87%
    02:00 +20°C° 0.1 mm 1 mps 670 mmHg 87%
    03:00 +20°C° 0.1 mm 1 mps 669 mmHg 86%
    04:00 +20°C° 0.1 mm 1 mps 669 mmHg 86%
    05:00 +20°C° 0.2 mm 1 mps 670 mmHg 84%
    06:00 +20°C° 0.2 mm 1 mps 670 mmHg 82%
    07:00 +20°C° 0.2 mm 1 mps 671 mmHg 80%
    08:00 +23°C° 0.2 mm 1 mps 671 mmHg 71%
    09:00 +26°C° 0.2 mm 1 mps 672 mmHg 63%
    10:00 +29°C° 0.2 mm 1 mps 673 mmHg 55%
    11:00 +29°C° 0.5 mm 1 mps 673 mmHg 57%
    12:00 +29°C° 0.5 mm 1 mps 672 mmHg 59%
    13:00 +30°C° 0.5 mm 2 mps 672 mmHg 61%
    14:00 +29°C° 1 mm 1 mps 671 mmHg 66%
    15:00 +27°C° 1 mm 1 mps 670 mmHg 72%
    16:00 +26°C° 1 mm 1 mps 669 mmHg 78%
    17:00 +25°C° 1.3 mm 1 mps 669 mmHg 82%
    18:00 +24°C° 1.3 mm 1 mps 669 mmHg 86%
    19:00 +20°C° 1.3 mm 0 mps 669 mmHg 90%
    20:00 +20°C° 0.8 mm 0 mps 669 mmHg 90%
    21:00 +22°C° 0.8 mm 1 mps 670 mmHg 89%
    22:00 +22°C° 0.8 mm 1 mps 670 mmHg 89%
    23:00 +22°C° 0.3 mm 1 mps 670 mmHg 89%

    28 February, Wednesday

    Time Temperature Precipitation Wind Pressure Humidity
    00:00 +21°C° 0.3 mm 1 mps 670 mmHg 88%
    01:00 +21°C° 0.3 mm 1 mps 669 mmHg 88%
    02:00 +21°C° 0.3 mm 1 mps 669 mmHg 87%
    03:00 +21°C° 0.3 mm 1 mps 669 mmHg 87%
    04:00 +21°C° 0.3 mm 1 mps 669 mmHg 86%
    05:00 +21°C° 0 mm 1 mps 669 mmHg 85%
    06:00 +21°C° 0 mm 1 mps 669 mmHg 83%
    07:00 +21°C° 0 mm 1 mps 670 mmHg 82%
    08:00 +23°C° 0 mm 1 mps 671 mmHg 74%
    09:00 +26°C° 0 mm 1 mps 671 mmHg 66%
    10:00 +28°C° 0 mm 1 mps 672 mmHg 58%
    11:00 +29°C° 0.3 mm 1 mps 672 mmHg 58%
    12:00 +29°C° 0.3 mm 1 mps 671 mmHg 57%
    13:00 +30°C° 0.3 mm 2 mps 671 mmHg 57%
    14:00 +29°C° 0.7 mm 1 mps 670 mmHg 60%
    15:00 +29°C° 0.7 mm 1 mps 669 mmHg 63%
    16:00 +28°C° 0.7 mm 1 mps 668 mmHg 67%
    17:00 +26°C° 1 mm 1 mps 668 mmHg 73%
    18:00 +25°C° 1 mm 1 mps 668 mmHg 79%
    19:00 +21°C° 1 mm 0 mps 668 mmHg 86%
    20:00 +23°C° 1.6 mm 1 mps 669 mmHg 87%
    21:00 +22°C° 1.6 mm 1 mps 669 mmHg 89%
    22:00 +22°C° 1.6 mm 1 mps 670 mmHg 91%
    23:00 +22°C° 1.3 mm 1 mps 670 mmHg 90%

    1 March, Thursday

    Time Temperature Precipitation Wind Pressure Humidity
    00:00 +22°C° 1.3 mm 1 mps 670 mmHg 89%
    01:00 +22°C° 1.3 mm 1 mps 669 mmHg 89%
    02:00 +21°C° 0.8 mm 1 mps 669 mmHg 88%
    03:00 +21°C° 0.8 mm 1 mps 669 mmHg 88%
    04:00 +21°C° 0.8 mm 1 mps 669 mmHg 87%
    05:00 +21°C° 0.2 mm 1 mps 669 mmHg 86%
    06:00 +21°C° 0.2 mm 1 mps 670 mmHg 85%
    07:00 +21°C° 0.2 mm 1 mps 670 mmHg 84%
    08:00 +23°C° 0.2 mm 1 mps 671 mmHg 80%
    09:00 +24°C° 0.2 mm 1 mps 671 mmHg 75%
    10:00 +26°C° 0.2 mm 1 mps 672 mmHg 71%
    11:00 +26°C° 0.8 mm 1 mps 671 mmHg 72%
    12:00 +26°C° 0.8 mm 1 mps 671 mmHg 73%
    13:00 +27°C° 0.8 mm 1 mps 670 mmHg 74%
    14:00 +27°C° 0.3 mm 1 mps 670 mmHg 72%
    15:00 +27°C° 0.3 mm 1 mps 669 mmHg 69%
    16:00 +25°C° 0.3 mm 0 mps 669 mmHg 67%
    17:00 +26°C° 0.4 mm 1 mps 669 mmHg 73%
    18:00 +24°C° 0.4 mm 1 mps 669 mmHg 79%
    19:00 +23°C° 0.4 mm 1 mps 669 mmHg 85%
    20:00 +22°C° 0.3 mm 1 mps 670 mmHg 85%
    21:00 +22°C° 0.3 mm 1 mps 670 mmHg 85%
    22:00 +22°C° 0.3 mm 1 mps 670 mmHg 85%
    23:00 +21°C° 0.2 mm 1 mps 670 mmHg 84%
    Show more